This is the latest recevied weather packets stored in our database for station/object K1AWR. If no packets are shown the sender has not sent any weather packets the latest 10 day(s).
| Time | Temp. | Humidity | Pressure | Rain* | Wind** | Luminosity | Snow |
|---|---|---|---|---|---|---|---|
| 1777668985 | 18.89° C | 35% | 1010.1 hPa | 0 mm | - | 182 W/m² | - |
| 1777668683 | 19.44° C | 31% | 1010 hPa | 0 mm | - | 382 W/m² | - |
| 1777668379 | 18.89° C | 30% | 1010.1 hPa | 0 mm | - | 322 W/m² | - |
| 1777668075 | 18.89° C | 31% | 1009.9 hPa | 0 mm | - | 423 W/m² | - |
| 1777667772 | 18.89° C | 29% | 1010.1 hPa | 0 mm | - | 430 W/m² | - |
| 1777667469 | 20° C | 37% | 1009.9 hPa | 0 mm | - | 444 W/m² | - |
| 1777667166 | 20° C | 31% | 1009.9 hPa | 0 mm | - | 471 W/m² | - |
| 1777666863 | 18.89° C | 34% | 1010 hPa | 0 mm | - | 494 W/m² | - |
| 1777666560 | 18.89° C | 37% | 1009.9 hPa | 0 mm | - | 528 W/m² | - |
| 1777666256 | 19.44° C | 31% | 1009.9 hPa | 0 mm | - | 202 W/m² | - |
| 1777665953 | 18.33° C | 34% | 1010 hPa | 0 mm | - | 556 W/m² | - |
| 1777665651 | 17.78° C | 34% | 1010.1 hPa | 0 mm | - | 571 W/m² | - |
| 1777665348 | 18.89° C | 33% | 1010 hPa | 0 mm | - | 101 W/m² | - |
| 1777665043 | 20° C | 31% | 1010 hPa | 0 mm | - | 552 W/m² | - |
| 1777664739 | 20° C | 34% | 1009.9 hPa | 0 mm | - | 569 W/m² | - |
| 1777664435 | 18.33° C | 36% | 1010 hPa | 0 mm | - | 584 W/m² | - |
| 1777664133 | 19.44° C | 31% | 1010 hPa | 0 mm | - | 584 W/m² | - |
| 1777663831 | 18.89° C | 33% | 1010.1 hPa | 0 mm | - | 590 W/m² | - |
| 1777663528 | 17.78° C | 33% | 1010.3 hPa | 0 mm | - | 604 W/m² | - |
| 1777663226 | 17.78° C | 32% | 1010.4 hPa | 0 mm | - | 627 W/m² | - |
| 1777662922 | 18.89° C | 34% | 1010.4 hPa | 0 mm | - | 633 W/m² | - |
| 1777662620 | 18.33° C | 30% | 1010.3 hPa | 0 mm | - | 647 W/m² | - |
| 1777662315 | 18.33° C | 33% | 1010.6 hPa | 0 mm | - | 651 W/m² | - |
| 1777662011 | 18.33° C | 31% | 1010.6 hPa | 0 mm | - | 671 W/m² | - |
| 1777661707 | 18.33° C | 37% | 1010.7 hPa | 0 mm | - | 683 W/m² | - |
* Rain latest hour (hover to see other rain measurements)
** Current wind speed in m/s (hover to see current wind gust speed)